Content
SEND FEEDBACK

Daily
Averages
Monthly
Summary
Peru

CHICLAYO, PERU


Home > South America > Peru
Elevation: 111 feet     Latitude: 06 47S     Longitude: 079 50W

WEATHER
 
SELECT A DAY
Number of Records: 170,759;   Date Range: 6/30/96 - 9/30/14
 
SHARE

PRINT THIS DATA

[ ← Previous Day ]
WEATHER ALMANAC - FEBRUARY 13, 2013
[ Next Day → ]
[ °C ]   °F
Weather ElementAverageHighLow
Temperature74.5 °F86 °F (2:00 pm)68 °F (6:00 am)
Dewpoint68.1 °F71.6 °F (2:00 pm)64.4 °F (6:00 am)
Humidity80.4 %100 % (7:00 am)52 % (1:00 pm)
Barometer29.86 in29.92 in (11:00 pm)29.77 in (5:00 pm)
Wind Speed8.6 mph18.4 mph (4:00 pm)
Weather ElementAverage
Visibility3.6 mi
Wind DirectionS (185 °)

Weather ElementTotal
Precipitation---
Cooling Degree Days12 (Base 65)
Growing Degree Days27 (Base 50)
Averaged from 38 records on February 13, 2013
WEATHER CONDITIONS BREAKOUT
WIND DIRECTION BREAKOUT
WEATHER BY HOUR - FEBRUARY 13, 2013
[ °C ]   °F
Local TimeTemperatureDewpointHumidityBarometerVisibilityWind DirectionWind SpeedGust SpeedPrecipitationEventsConditions
1:00 AM71.0 °F66.0 °F80 %29.89 in6.0 miSouth (180°)5.8 mphPartly Cloudy
1:00 AM71.6 °F66.2 °F83 %29.89 inSouth (170°)5.8 mphClear
2:00 AM71.6 °F66.2 °F83 %29.86 inSSW (200°)3.5 mphClear
3:00 AM71.6 °F66.2 °F83 %29.86 inSSW (210°)3.5 mphClear
4:00 AM71.6 °F66.2 °F83 %29.83 inSouth (180°)2.3 mphClear
4:00 AM71.0 °F66.0 °F80 %29.83 in6.0 miSouth (180°)2.3 mphPartly Cloudy
5:00 AM69.8 °F66.2 °F88 %29.86 inSouth (170°)2.3 mphClear
6:00 AM68.0 °F64.4 °F88 %29.86 in3.7 miSouth (170°)4.6 mphMostly Cloudy
6:15 AM68.0 °F66.2 °F94 %29.86 in1.2 miSSE (160°)3.5 mphOvercast
6:30 AM68.0 °F66.2 °F94 %29.86 in0.6 miSSE (160°)3.5 mphOvercast
6:35 AM68.0 °F66.2 °F94 %29.86 in0.3 miSSE (160°)4.6 mphFogFog
7:00 AM68.0 °F67.0 °F98 %29.86 in0.0 miSouth (170°)4.6 mphFogShallow Fog
7:00 AM68.0 °F68.0 °F100 %29.86 in0.3 miSouth (170°)4.6 mphFogFog
7:30 AM68.0 °F68.0 °F100 %29.89 in0.3 miSouth (180°)5.8 mphFogFog
7:40 AM68.0 °F68.0 °F100 %29.89 in0.5 miSouth (170°)8.1 mphFogFog
8:00 AM69.8 °F68.0 °F94 %29.89 in0.9 miSouth (190°)5.8 mphOvercast
8:15 AM69.8 °F68.0 °F94 %29.89 in3.1 miSouth (190°)5.8 mphOvercast
8:30 AM71.6 °F68.0 °F88 %29.89 in5.0 miSSW (200°)6.9 mphMostly Cloudy
9:00 AM73.4 °F68.0 °F83 %29.89 in6.2 miSSW (210°)6.9 mphScattered Clouds
10:00 AM77.0 °F68.0 °F74 %29.89 inSSW (210°)5.8 mphClear
10:00 AM77.0 °F69.0 °F68 %29.91 in6.0 miSSW (210°)5.8 mphPartly Cloudy
11:00 AM80.6 °F69.8 °F70 %29.89 inSW (230°)8.1 mphClear
12:00 PM82.4 °F69.8 °F66 %29.89 inSW (230°)8.1 mphClear
1:00 PM85.0 °F70.0 °F52 %29.86 in6.0 miSouth (190°)11.5 mphPartly Cloudy
1:00 PM84.2 °F69.8 °F62 %29.86 inSouth (190°)11.5 mphClear
2:00 PM86.0 °F71.6 °F62 %29.83 inSSW (210°)13.8 mphClear
3:00 PM86.0 °F71.6 °F62 %29.80 inSouth (190°)16.1 mphClear
4:00 PM83.0 °F71.0 °F58 %29.80 in6.0 miSouth (190°)18.4 mphPartly Cloudy
4:00 PM82.4 °F69.8 °F66 %29.80 inSouth (190°)18.4 mphClear
5:00 PM82.4 °F69.8 °F66 %29.77 inSouth (190°)16.1 mphClear
6:00 PM80.6 °F69.8 °F70 %29.80 inSouth (170°)16.1 mphClear
7:00 PM76.0 °F69.0 °F72 %29.83 in6.0 miSouth (170°)12.7 mphPartly Cloudy
7:00 PM75.2 °F68.0 °F78 %29.83 inSouth (170°)12.7 mphClear
8:00 PM73.4 °F69.8 °F88 %29.86 in6.2 miSouth (180°)12.7 mphScattered Clouds
9:00 PM73.4 °F68.0 °F83 %29.86 inSouth (180°)10.4 mphClear
10:00 PM73.0 °F68.0 °F81 %29.91 in6.0 miSouth (170°)13.8 mphPartly Cloudy
10:00 PM73.4 °F68.0 °F83 %29.89 in6.2 miSouth (170°)13.8 mphPartly Cloudy
11:00 PM71.6 °F68.0 °F88 %29.92 inSouth (170°)10.4 mphClear
Hourly data recorded from SPHI, located miles away from Chiclayo, Peru







STORIES FROM OUR PARTNERS